Flag for Ireland

Past Weather in Waterford, Ireland — Yesterday and Last 2 Weeks

Now
50 °F

Scattered clouds.


Feels Like: 46 °F
Forecast: 52 / 46 °F
Wind: 9 mph from Northwest

Location: Cork Airport
Current Time: Sep 23, 2020 at 12:12:46 pm
Latest Report: Sep 23, 2020 at 11:00 am
Visibility: N/A
Pressure29.65 "Hg
Humidity: 88%
Dew Point: 46 °F
Location of WaterfordLocation

Past Weather in Waterford — Graph

°F

Waterford Temperature Yesterday

Maximum temperature yesterday: 61 °F (at 3:30 pm)
Minimum temperature yesterday: 50 °F (at 1:00 am)
Average temperature yesterday: 55 °F

High & Low Weather Summary for the Past Weeks

 TemperatureHumidityPressure
High72 °F (Sep 16, 4:00 pm)100% (Sep 8, 6:00 pm)30.39 "Hg (Sep 8, 6:00 pm)
Low46 °F (Sep 23, 4:30 am)49% (Sep 18, 3:30 pm)29.59 "Hg (Sep 22, 6:30 pm)
Average58 °F86%30.10 "Hg
* Reported Sep 8 11:00 am — Sep 23 11:00 am, Waterford. Weather by CustomWeather, © 2020

Note: Actual official high and low records may vary slightly from our data, if they occured in-between our weather recording intervals... More about our weather records

Waterford Weather History for the Previous 24 Hours

Scroll right to see more
 ConditionsComfort  
Time TempWeatherWind HumidityBarometerVisibility
11:00 am
Wed, Sep 23
50 °FScattered clouds.9 mph88%29.65 "HgN/A
10:30 am50 °FScattered clouds.9 mph88%29.65 "HgN/A
10:00 am50 °FScattered clouds.10 mph88%29.65 "HgN/A
9:30 am48 °FScattered clouds.7 mph94%29.65 "HgN/A
9:00 am46 °FPartly sunny.7 mph93%29.65 "HgN/A
8:30 am46 °FBroken clouds.7 mph93%29.65 "HgN/A
8:00 am46 °FPartly sunny.8 mph93%29.65 "HgN/A
7:00 am46 °FPassing clouds.8 mph93%29.62 "HgN/A
6:30 am46 °FPassing clouds.8 mph93%29.62 "HgN/A
6:00 am46 °FPassing clouds.9 mph93%29.62 "HgN/A
5:30 am46 °FPassing clouds.8 mph93%29.62 "HgN/A
5:00 am46 °FPassing clouds.8 mph93%29.62 "HgN/A
4:30 am46 °FPassing clouds.9 mph93%29.62 "HgN/A
4:00 am48 °FPassing clouds.8 mph87%29.62 "HgN/A
3:30 am48 °FPassing clouds.8 mph94%29.62 "HgN/A
3:00 am48 °FPassing clouds.9 mph94%29.62 "HgN/A
2:30 am48 °FPassing clouds.10 mph94%29.62 "HgN/A
1:30 am48 °FPassing clouds.8 mph94%29.62 "HgN/A
1:00 am50 °FPassing clouds.10 mph88%29.62 "HgN/A
12:30 am50 °FPassing clouds.14 mph88%29.62 "HgN/A
12:00 am52 °FPassing clouds.14 mph88%29.62 "HgN/A
11:30 pm
Tue, Sep 22
52 °FPartly cloudy.14 mph94%29.62 "HgN/A
11:00 pm52 °FPartly cloudy.9 mph94%29.62 "HgN/A
10:30 pm52 °FPartly cloudy.10 mph94%29.62 "HgN/A
10:00 pm52 °FPartly cloudy.8 mph94%29.62 "HgN/A
9:30 pm52 °FLight rain. Passing clouds.12 mph94%29.62 "Hg4 mi
9:00 pm52 °FLight rain. Partly cloudy.10 mph100%29.62 "Hg3 mi
8:30 pm52 °FLight rain. Passing clouds.15 mph100%29.62 "Hg4 mi
8:00 pm55 °FRain. Passing clouds.16 mph94%29.62 "Hg2 mi
7:30 pm57 °FPassing clouds.13 mph94%29.59 "Hg3 mi
7:00 pm57 °FDrizzle. Low clouds.15 mph94%29.59 "Hg3 mi
6:30 pm57 °FDrizzle. Partly sunny.14 mph94%29.59 "HgN/A
6:00 pm57 °FDrizzle. Partly sunny.16 mph94%29.62 "HgN/A
5:30 pm57 °FPartly sunny.16 mph94%29.62 "HgN/A
5:00 pm59 °FPartly sunny.12 mph88%29.62 "HgN/A
4:30 pm59 °FPartly sunny.15 mph88%29.65 "HgN/A
4:00 pm61 °FPartly sunny.14 mph77%29.65 "HgN/A
3:30 pm61 °FBroken clouds.15 mph77%29.65 "HgN/A
3:00 pm59 °FBroken clouds.13 mph88%29.68 "HgN/A
2:30 pm57 °FBroken clouds.15 mph88%29.68 "HgN/A
2:00 pm57 °FDrizzle. Partly sunny.14 mph100%29.71 "Hg2 mi
1:30 pm59 °FDrizzle. Partly sunny.16 mph88%29.71 "Hg6 mi
1:00 pm59 °FBroken clouds.15 mph88%29.71 "HgN/A
12:30 pm59 °FPartly sunny.15 mph88%29.71 "HgN/A
12:00 pm57 °FPartly sunny.13 mph94%29.74 "HgN/A
Weather by CustomWeather, © 2020

See weather overview